Flag for South Africa Weather past 2 weeks in Cape Town, South Africa

Now
82 °F

Sunny.


Feels Like: 83 °F
Forecast: 66 / 79 °F
Wind: 13 mph from Southwest

Location: Cape Town International Airport

Current Time: Jan 28, 2015 at 4:45:49 PM

Latest Report: Jan 28, 2015 at 4:00 PM


Visibility: 10 mi

Pressure: 29.86 "Hg

Humidity: 51%

Dew point: 63 °F

Location of Cape TownLocation

Historic Weather in Cape Town — Graph

°F

Cape Town temperature yesterday

Maximum temperature yesterday: 77 °F (at 12:00 PM)
Minimum temperature yesterday: 66 °F (at 1:00 AM)
Average temperature yesterday: 71 °F

Past Weeks' High & Low Weather Summary

 TemperatureHumidityPressure
High90 °F (Jan 14, 1:00 PM)94% (Jan 15, 5:00 AM)30.09 "Hg (Jan 15, 5:00 AM)
Low55 °F (Jan 17, 6:00 AM)35% (Jan 20, 12:00 PM)29.71 "Hg (Jan 16, 3:00 AM)
Average71 °F64%29.93 "Hg
* Reported Jan 13 3:00 PM — Jan 28 3:00 PM, Cape Town, Weather by CustomWeather, © 2014

Note: Actual official high and low records may vary slightly from our data, if they occured in-between our weather recording intervals... More about our weather records

Advertising

Cape Town weather history for previous 24 hours

 ConditionsComfort  
Time TempWeatherWind HumidityBarometerVisibility
3:00 PM
Jan 28
82 °FPassing clouds.15 mph48%29.89 "HgN/A
2:00 PM82 °FSunny.15 mph48%29.89 "Hg10 mi
1:00 PM82 °FSunny.15 mph45%29.92 "Hg10 mi
12:00 PM82 °FSunny.12 mph45%29.92 "Hg10 mi
11:00 AM79 °FPassing clouds.13 mph51%29.95 "HgN/A
10:00 AM77 °FPassing clouds.12 mph51%29.95 "HgN/A
9:00 AM73 °FSunny.13 mph61%29.95 "Hg10 mi
8:00 AM72 °FSunny.15 mph61%29.95 "Hg10 mi
7:00 AM66 °FPassing clouds.13 mph78%29.95 "HgN/A
6:00 AM64 °FSunny.12 mph78%29.95 "Hg10 mi
5:00 AM64 °FClear.8 mph78%29.95 "Hg10 mi
4:00 AM66 °FPassing clouds.8 mph73%29.95 "HgN/A
3:00 AM66 °FPassing clouds.8 mph73%29.95 "HgN/A
2:00 AM66 °FPassing clouds.10 mph68%29.98 "HgN/A
1:00 AM68 °FPassing clouds.16 mph64%29.98 "HgN/A
12:00 AM68 °FPassing clouds.17 mph69%29.98 "HgN/A
11:00 PM
Jan 27
68 °FPassing clouds.18 mph69%30.01 "HgN/A
10:00 PM70 °FPassing clouds.22 mph64%30.01 "HgN/A
9:00 PM68 °FPassing clouds.21 mph64%30.01 "HgN/A
8:00 PM70 °FPassing clouds.24 mph60%30.01 "HgN/A
7:00 PM70 °FPassing clouds.28 mph60%29.98 "HgN/A
6:00 PM73 °FPassing clouds.29 mph53%29.98 "HgN/A
5:00 PM73 °FPassing clouds.31 mph53%30.01 "HgN/A
4:00 PM75 °FPassing clouds.33 mph54%30.01 "HgN/A
Weather by CustomWeather, © 2014

See weather overviewHow to use our weather pages